Total_Precipitation_Accumulation
0.51 0.52 0.52 0.48 0.43 0.42 0.44 0.52 0.58 0.51 0.41 0.30 0.26 0.26 0.33 0.34 0.37 0.39 0.45 0.36 0.32 0.37 0.38 0.42 0.47 0.58 0.62 0.55 0.48 0.42 0.41 0.41 0.43 0.49 0.60 0.73 0.88 1.03
0.40 0.36 0.32 0.29 0.27 0.27 0.30 0.35 0.44 0.52 0.49 0.33 0.27 0.30 0.34 0.31 0.37 0.42 0.43 0.40 0.44 0.66 0.78 0.70 0.65 0.78 0.86 0.75 0.61 0.53 0.49 0.46 0.47 0.50 0.56 0.65 0.77 0.90
0.27 0.24 0.23 0.23 0.24 0.23 0.25 0.30 0.35 0.47 0.55 0.38 0.29 0.32 0.37 0.39 0.41 0.45 0.44 0.48 0.59 0.99 1.25 1.44 1.18 1.06 1.11 0.98 0.81 0.64 0.55 0.51 0.51 0.55 0.60 0.66 0.72 0.77
0.22 0.23 0.22 0.22 0.24 0.24 0.28 0.31 0.36 0.47 0.61 0.55 0.43 0.45 0.47 0.49 0.59 0.61 0.54 0.47 0.55 0.97 1.34 1.68 1.64 1.43 1.44 1.26 1.05 0.79 0.61 0.53 0.52 0.54 0.58 0.63 0.69 0.77
0.21 0.22 0.22 0.25 0.27 0.31 0.39 0.43 0.46 0.49 0.64 0.68 0.56 0.58 0.63 0.69 0.81 0.75 0.63 0.60 0.47 0.74 1.20 1.54 1.74 1.81 1.91 1.76 1.44 1.05 0.75 0.58 0.51 0.52 0.55 0.58 0.61 0.62
0.20 0.24 0.27 0.33 0.38 0.43 0.46 0.48 0.52 0.58 0.64 0.71 0.68 0.71 0.77 0.82 0.88 0.87 0.72 0.63 0.56 0.61 1.05 1.53 1.87 1.94 2.13 2.26 1.97 1.46 1.02 0.72 0.55 0.48 0.43 0.41 0.41 0.41
0.20 0.22 0.27 0.35 0.41 0.41 0.39 0.42 0.53 0.66 0.69 0.77 0.78 0.75 0.75 0.85 0.87 0.76 0.66 0.56 0.50 0.55 0.76 1.19 1.88 2.21 2.28 2.34 2.25 1.76 1.28 0.92 0.68 0.53 0.45 0.38 0.36 0.35
0.24 0.24 0.22 0.24 0.23 0.24 0.31 0.37 0.48 0.66 0.89 1.01 0.92 0.83 0.71 0.71 0.73 0.68 0.68 0.63 0.55 0.42 0.49 0.79 1.41 2.13 2.40 2.43 2.33 1.77 1.27 0.95 0.76 0.65 0.56 0.48 0.42 0.40
0.29 0.28 0.21 0.16 0.19 0.24 0.27 0.32 0.44 0.60 0.82 1.09 1.12 0.88 0.79 0.74 0.75 0.74 0.76 0.77 0.70 0.49 0.52 0.75 1.19 1.87 2.15 2.21 2.10 1.54 1.13 0.90 0.78 0.69 0.62 0.56 0.49 0.45
0.25 0.26 0.28 0.27 0.23 0.25 0.27 0.33 0.47 0.63 0.74 0.81 1.07 0.91 0.73 0.69 0.71 0.70 0.74 0.72 0.65 0.52 0.54 0.77 1.13 1.63 1.72 1.82 1.78 1.39 1.07 0.89 0.78 0.69 0.63 0.59 0.54 0.53
0.20 0.19 0.18 0.23 0.23 0.33 0.43 0.59 0.73 0.88 0.86 0.97 1.12 1.09 0.96 0.87 0.73 0.69 0.76 0.73 0.67 0.58 0.56 0.71 0.99 1.20 1.34 1.48 1.41 1.28 1.07 0.92 0.80 0.72 0.65 0.60 0.54 0.55
0.20 0.23 0.18 0.17 0.25 0.42 0.60 0.80 0.93 1.05 0.97 1.05 1.27 1.31 1.16 1.12 1.07 0.92 0.87 0.77 0.71 0.70 0.60 0.64 0.83 0.89 1.14 1.24 1.18 1.11 1.07 1.07 0.96 0.84 0.74 0.63 0.50 0.49
0.21 0.30 0.32 0.25 0.32 0.52 0.72 0.84 1.00 1.07 1.07 1.10 1.09 1.09 1.14 1.14 1.07 1.00 0.89 0.74 0.67 0.67 0.56 0.60 0.77 0.81 0.92 1.06 1.12 1.14 1.09 1.08 1.01 1.00 0.98 0.82 0.65 0.56
0.31 0.35 0.38 0.35 0.41 0.61 0.77 0.97 1.16 1.26 1.19 1.15 0.97 0.86 0.82 0.83 0.84 0.78 0.70 0.62 0.57 0.55 0.52 0.57 0.75 0.85 0.81 0.82 1.07 1.18 1.19 1.21 1.12 1.07 1.06 0.98 0.86 0.79
0.29 0.36 0.40 0.42 0.58 0.90 1.08 1.21 1.34 1.39 1.33 1.14 0.93 0.83 0.71 0.64 0.64 0.67 0.65 0.57 0.51 0.45 0.39 0.46 0.62 0.74 0.75 0.79 1.01 1.13 1.22 1.41 1.34 1.24 1.10 1.00 0.95 0.88
0.31 0.44 0.54 0.61 0.78 1.07 1.28 1.44 1.48 1.36 1.15 1.01 0.89 0.83 0.72 0.63 0.62 0.55 0.52 0.49 0.51 0.52 0.42 0.40 0.51 0.62 0.71 0.72 0.85 1.02 1.12 1.46 1.47 1.24 1.13 1.09 1.00 0.88
0.29 0.46 0.61 0.73 0.92 1.11 1.27 1.34 1.34 1.23 1.09 0.89 0.78 0.79 0.78 0.71 0.65 0.54 0.46 0.40 0.45 0.48 0.48 0.45 0.47 0.50 0.51 0.56 0.72 0.89 1.00 1.21 1.29 1.09 0.93 0.99 1.03 0.91
0.33 0.48 0.60 0.71 0.88 1.07 1.19 1.19 1.11 1.04 0.93 0.79 0.72 0.69 0.68 0.65 0.62 0.53 0.43 0.40 0.43 0.41 0.38 0.37 0.38 0.41 0.40 0.46 0.63 0.73 0.80 0.98 1.00 0.84 0.65 0.71 0.97 1.00
0.34 0.50 0.61 0.72 0.88 1.02 1.07 1.06 1.02 0.93 0.82 0.74 0.68 0.62 0.56 0.53 0.48 0.43 0.39 0.38 0.37 0.36 0.31 0.26 0.25 0.30 0.36 0.54 0.69 0.74 0.73 0.77 0.73 0.66 0.60 0.61 0.84 0.99
0.39 0.54 0.64 0.71 0.78 0.85 0.91 0.96 0.97 0.88 0.77 0.70 0.67 0.62 0.54 0.47 0.39 0.36 0.33 0.30 0.30 0.31 0.29 0.23 0.19 0.21 0.27 0.40 0.63 0.74 0.66 0.56 0.48 0.49 0.51 0.56 0.72 0.80
0.44 0.55 0.62 0.67 0.69 0.69 0.74 0.80 0.82 0.80 0.72 0.66 0.63 0.60 0.54 0.46 0.37 0.29 0.25 0.15 0.18 0.24 0.26 0.23 0.18 0.14 0.16 0.22 0.39 0.52 0.53 0.53 0.42 0.35 0.33 0.35 0.39 0.39
0.43 0.50 0.55 0.59 0.57 0.57 0.58 0.62 0.64 0.64 0.61 0.58 0.55 0.53 0.45 0.35 0.29 0.23 0.20 0.18 0.19 0.19 0.17 0.14 0.11 0.09 0.11 0.19 0.31 0.39 0.38 0.34 0.30 0.28 0.27 0.24 0.21 0.31
0.40 0.42 0.44 0.46 0.45 0.44 0.44 0.45 0.49 0.53 0.54 0.55 0.52 0.46 0.37 0.29 0.23 0.18 0.15 0.13 0.13 0.12 0.12 0.11 0.08 0.06 0.07 0.11 0.17 0.22 0.23 0.22 0.20 0.20 0.25 0.31 0.31 0.38